Time,TemperatureF,DewpointF,PressureIn,WindDirection,WindDirectionDegrees,WindSpeedMPH,WindSpeedGustMPH,Humidity,HourlyPrecipIn,Conditions,Clouds,dailyrainin,SolarRadiationWatts/m^2,SoftwareType,DateUTC
2013-01-18 00:03:00,21.2,17.4,30.45,West,269,0.0,0.0,85,0.00,CLR,,0.00,0.0,WeatherDisplay:10.37,2013-01-18 06:03:00,
2013-01-18 00:08:00,21.2,17.4,30.45,West,269,0.0,0.0,85,0.00,CLR,,0.00,0.0,WeatherDisplay:10.37,2013-01-18 06:08:00,
2013-01-18 00:13:00,21.3,17.5,30.45,West,270,0.0,0.0,85,0.00,CLR,,0.00,0.0,WeatherDisplay:10.37,2013-01-18 06:13:00,
2013-01-18 00:18:00,21.4,17.6,30.45,West,270,0.0,0.0,85,0.00,CLR,,0.00,0.0,WeatherDisplay:10.37,2013-01-18 06:18:00,
2013-01-18 00:23:00,21.6,17.8,30.45,West,270,0.0,0.0,85,0.00,CLR,,0.00,0.0,WeatherDisplay:10.37,2013-01-18 06:23:00,
2013-01-18 00:28:00,21.8,18.3,30.45,West,270,0.0,0.0,86,0.00,CLR,,0.00,0.0,WeatherDisplay:10.37,2013-01-18 06:28:00,
2013-01-18 00:33:00,21.9,18.4,30.45,West,270,0.0,0.0,86,0.00,CLR,,0.00,0.0,WeatherDisplay:10.37,2013-01-18 06:33:00,
2013-01-18 00:38:00,22.1,18.6,30.45,West,270,0.0,0.0,86,0.00,CLR,,0.00,0.0,WeatherDisplay:10.37,2013-01-18 06:38:00,
2013-01-18 00:43:00,22.3,18.7,30.45,West,269,0.0,0.0,86,0.00,CLR,,0.00,0.0,WeatherDisplay:10.37,2013-01-18 06:43:00,
2013-01-18 00:48:00,22.4,19.1,30.45,West,270,0.0,0.0,87,0.00,CLR,,0.00,0.0,WeatherDisplay:10.37,2013-01-18 06:48:00,
2013-01-18 00:53:00,22.5,19.2,30.45,West,269,0.0,0.0,87,0.00,CLR,,0.00,0.0,WeatherDisplay:10.37,2013-01-18 06:53:00,
2013-01-18 00:58:00,22.7,19.4,30.45,West,269,0.0,0.0,87,0.00,CLR,,0.00,0.0,WeatherDisplay:10.37,2013-01-18 06:58:00,
2013-01-18 01:03:00,22.8,19.5,30.45,West,270,0.0,0.0,87,0.00,CLR,,0.00,0.0,WeatherDisplay:10.37,2013-01-18 07:03:00,
2013-01-18 01:08:00,22.9,19.6,30.44,West,269,0.0,0.0,87,0.00,CLR,,0.00,0.0,WeatherDisplay:10.37,2013-01-18 07:08:00,
2013-01-18 01:13:00,23.0,19.7,30.45,West,270,0.0,0.0,87,0.00,CLR,,0.00,0.0,WeatherDisplay:10.37,2013-01-18 07:13:00,
2013-01-18 01:48:00,23.9,20.6,30.45,West,269,0.0,0.0,87,0.00,CLR,,0.00,0.0,WeatherDisplay:10.37,2013-01-18 07:48:00,
2013-01-18 01:53:00,24.0,20.7,30.45,West,269,0.0,0.0,87,0.00,CLR,,0.00,0.0,WeatherDisplay:10.37,2013-01-18 07:53:00,
2013-01-18 01:58:00,24.2,20.9,30.44,West,260,0.0,0.0,87,0.00,CLR,,0.00,0.0,WeatherDisplay:10.37,2013-01-18 07:58:00,
2013-01-18 02:03:00,24.3,21.0,30.44,West,261,0.0,0.0,87,0.00,CLR,,0.00,0.0,WeatherDisplay:10.37,2013-01-18 08:03:00,
2013-01-18 02:08:00,24.5,21.2,30.44,West,260,0.0,0.0,87,0.00,CLR,,0.00,0.0,WeatherDisplay:10.37,2013-01-18 08:08:00,
2013-01-18 02:13:00,24.7,21.4,30.44,West,261,0.0,0.0,87,0.00,CLR,,0.00,0.0,WeatherDisplay:10.37,2013-01-18 08:13:00,
2013-01-18 02:18:00,24.9,21.6,30.44,West,260,0.0,0.0,87,0.00,CLR,,0.00,0.0,WeatherDisplay:10.37,2013-01-18 08:18:00,
2013-01-18 02:23:00,25.0,21.7,30.44,West,261,0.0,0.0,87,0.00,CLR,,0.00,0.0,WeatherDisplay:10.37,2013-01-18 08:23:00,
2013-01-18 02:28:00,25.2,21.9,30.44,West,261,0.0,0.0,87,0.00,CLR,,0.00,0.0,WeatherDisplay:10.37,2013-01-18 08:28:00,
2013-01-18 02:33:00,25.3,22.0,30.44,West,261,0.0,0.0,87,0.00,CLR,,0.00,0.0,WeatherDisplay:10.37,2013-01-18 08:33:00,
2013-01-18 02:38:00,25.3,21.7,30.44,West,261,0.0,0.0,86,0.00,CLR,,0.00,0.0,WeatherDisplay:10.37,2013-01-18 08:38:00,
2013-01-18 02:43:00,25.4,21.8,30.44,West,261,0.0,0.0,86,0.00,CLR,,0.00,0.0,WeatherDisplay:10.37,2013-01-18 08:43:00,
2013-01-18 02:48:00,25.7,22.1,30.43,West,260,0.0,0.0,86,0.00,CLR,,0.00,0.0,WeatherDisplay:10.37,2013-01-18 08:48:00,
2013-01-18 02:53:00,25.9,22.3,30.43,West,261,0.0,0.0,86,0.00,CLR,,0.00,0.0,WeatherDisplay:10.37,2013-01-18 08:53:00,
2013-01-18 02:58:00,26.0,22.4,30.43,West,260,0.0,0.0,86,0.00,CLR,,0.00,0.0,WeatherDisplay:10.37,2013-01-18 08:58:00,
2013-01-18 03:03:00,26.1,22.2,30.43,West,260,0.0,0.0,85,0.00,CLR,,0.00,0.0,WeatherDisplay:10.37,2013-01-18 09:03:00,
2013-01-18 03:08:00,26.2,22.3,30.43,West,261,0.0,0.0,85,0.00,CLR,,0.00,0.0,WeatherDisplay:10.37,2013-01-18 09:08:00,
2013-01-18 03:13:00,26.2,22.3,30.43,West,260,0.0,0.0,85,0.00,CLR,,0.00,0.0,WeatherDisplay:10.37,2013-01-18 09:13:00,
2013-01-18 03:18:00,26.3,22.4,30.43,West,261,0.0,0.0,85,0.00,CLR,,0.00,0.0,WeatherDisplay:10.37,2013-01-18 09:18:00,
2013-01-18 03:23:00,26.3,22.4,30.42,West,261,0.0,0.0,85,0.00,CLR,,0.00,0.0,WeatherDisplay:10.37,2013-01-18 09:23:00,
2013-01-18 03:28:00,26.4,22.2,30.42,West,260,0.0,0.0,84,0.00,CLR,,0.00,0.0,WeatherDisplay:10.37,2013-01-18 09:28:00,
2013-01-18 03:33:00,26.5,22.3,30.42,West,260,0.0,0.0,84,0.00,CLR,,0.00,0.0,WeatherDisplay:10.37,2013-01-18 09:33:00,
2013-01-18 03:38:00,26.5,22.3,30.41,West,261,0.0,0.0,84,0.00,CLR,,0.00,0.0,WeatherDisplay:10.37,2013-01-18 09:38:00,
2013-01-18 03:43:00,26.6,22.4,30.41,West,261,0.0,0.0,84,0.00,CLR,,0.00,0.0,WeatherDisplay:10.37,2013-01-18 09:43:00,
2013-01-18 03:48:00,26.7,22.2,30.41,SSE,165,0.0,0.2,83,0.00,CLR,,0.00,0.0,WeatherDisplay:10.37,2013-01-18 09:48:00,
2013-01-18 03:53:00,26.7,22.2,30.41,SSE,164,0.0,0.0,83,0.00,CLR,,0.00,0.0,WeatherDisplay:10.37,2013-01-18 09:53:00,
2013-01-18 03:58:00,26.8,22.3,30.41,SSE,165,3.5,3.5,83,0.00,CLR,,0.00,0.0,WeatherDisplay:10.37,2013-01-18 09:58:00,
2013-01-18 04:03:00,26.7,22.2,30.40,South,176,5.0,5.0,83,0.00,CLR,,0.00,0.0,WeatherDisplay:10.37,2013-01-18 10:03:00,
2013-01-18 04:08:00,26.7,22.2,30.41,South,175,0.0,0.0,83,0.00,CLR,,0.00,0.0,WeatherDisplay:10.37,2013-01-18 10:08:00,
2013-01-18 04:13:00,26.7,22.2,30.40,SSE,167,5.0,5.0,83,0.00,CLR,,0.00,0.0,WeatherDisplay:10.37,2013-01-18 10:13:00,
2013-01-18 04:19:00,26.7,22.2,30.40,SSE,164,3.5,3.5,83,0.00,CLR,,0.00,0.0,WeatherDisplay:10.37,2013-01-18 10:19:00,
2013-01-18 04:24:00,26.6,22.1,30.40,South,177,5.8,5.8,83,0.00,CLR,,0.00,0.0,WeatherDisplay:10.37,2013-01-18 10:24:00,
2013-01-18 04:29:00,26.5,22.0,30.40,South,173,6.9,6.9,83,0.00,CLR,,0.00,0.0,WeatherDisplay:10.37,2013-01-18 10:29:00,
2013-01-18 04:34:00,26.5,22.0,30.39,SSE,155,5.8,5.8,83,0.00,CLR,,0.00,0.0,WeatherDisplay:10.37,2013-01-18 10:34:00,
2013-01-18 04:39:00,26.5,22.0,30.39,SSE,159,5.8,5.8,83,0.00,CLR,,0.00,0.0,WeatherDisplay:10.37,2013-01-18 10:39:00,
2013-01-18 04:44:00,26.4,21.9,30.39,SSE,157,3.5,3.5,83,0.00,CLR,,0.00,0.0,WeatherDisplay:10.37,2013-01-18 10:44:00,
2013-01-18 04:49:00,26.4,21.9,30.39,SSE,156,3.5,3.5,83,0.00,CLR,,0.00,0.0,WeatherDisplay:10.37,2013-01-18 10:49:00,
2013-01-18 04:54:00,26.4,21.9,30.39,SSE,153,3.5,3.5,83,0.00,CLR,,0.00,0.0,WeatherDisplay:10.37,2013-01-18 10:54:00,
2013-01-18 04:59:00,26.3,21.8,30.39,SSE,154,3.5,3.5,83,0.00,CLR,,0.00,0.0,WeatherDisplay:10.37,2013-01-18 10:59:00,
2013-01-18 05:04:00,26.3,21.8,30.38,SSE,154,2.3,2.3,83,0.00,CLR,,0.00,0.0,WeatherDisplay:10.37,2013-01-18 11:04:00,
2013-01-18 05:09:00,26.3,21.8,30.38,SSE,153,3.5,3.5,83,0.00,CLR,,0.00,0.0,WeatherDisplay:10.37,2013-01-18 11:09:00,
2013-01-18 05:14:00,26.4,21.9,30.38,SE,146,5.8,5.8,83,0.00,CLR,,0.00,0.0,WeatherDisplay:10.37,2013-01-18 11:14:00,
2013-01-18 05:19:00,26.5,22.0,30.37,SSE,159,7.0,7.0,83,0.00,CLR,,0.00,0.0,WeatherDisplay:10.37,2013-01-18 11:19:00,
2013-01-18 05:24:00,26.6,22.1,30.36,SSE,164,9.2,9.2,83,0.00,CLR,,0.00,0.0,WeatherDisplay:10.37,2013-01-18 11:24:00,
2013-01-18 05:29:00,26.7,21.9,30.36,SSE,155,9.2,9.2,82,0.00,CLR,,0.00,0.0,WeatherDisplay:10.37,2013-01-18 11:29:00,
2013-01-18 05:34:00,26.9,22.1,30.36,SSE,158,4.6,4.6,82,0.00,CLR,,0.00,0.0,WeatherDisplay:10.37,2013-01-18 11:34:00,
2013-01-18 05:39:00,27.1,22.3,30.36,SE,142,10.4,10.4,82,0.00,CLR,,0.00,0.0,WeatherDisplay:10.37,2013-01-18 11:39:00,
2013-01-18 05:44:00,27.3,22.5,30.37,South,183,6.9,6.9,82,0.00,CLR,,0.00,0.0,WeatherDisplay:10.37,2013-01-18 11:44:00,
2013-01-18 05:49:00,27.8,23.0,30.36,South,174,5.8,5.8,82,0.00,CLR,,0.00,0.0,WeatherDisplay:10.37,2013-01-18 11:49:00,
2013-01-18 05:54:00,28.3,23.2,30.36,SSW,194,10.4,10.4,81,0.00,CLR,,0.00,0.0,WeatherDisplay:10.37,2013-01-18 11:54:00,
2013-01-18 05:59:00,28.7,23.3,30.35,SSW,195,11.5,11.5,80,0.00,CLR,,0.00,0.0,WeatherDisplay:10.37,2013-01-18 11:59:00,
2013-01-18 06:04:00,29.1,23.7,30.35,SSW,199,11.5,11.5,80,0.00,CLR,,0.00,0.0,WeatherDisplay:10.37,2013-01-18 12:04:00,
2013-01-18 06:09:00,29.4,23.7,30.36,South,188,11.5,11.5,79,0.00,CLR,,0.00,0.0,WeatherDisplay:10.37,2013-01-18 12:09:00,
2013-01-18 06:14:00,29.7,24.0,30.35,South,170,11.5,11.5,79,0.00,CLR,,0.00,0.0,WeatherDisplay:10.37,2013-01-18 12:14:00,
2013-01-18 06:19:00,29.9,24.2,30.35,SSE,153,11.5,11.5,79,0.00,CLR,,0.00,0.0,WeatherDisplay:10.37,2013-01-18 12:19:00,
2013-01-18 06:24:00,30.2,24.5,30.34,SSW,195,11.5,11.5,79,0.00,CLR,,0.00,0.0,WeatherDisplay:10.37,2013-01-18 12:24:00,
2013-01-18 06:29:00,30.5,24.8,30.34,South,174,15.0,15.0,79,0.00,CLR,,0.00,0.0,WeatherDisplay:10.37,2013-01-18 12:29:00,
2013-01-18 06:34:00,30.8,24.7,30.34,South,179,10.4,10.4,78,0.00,CLR,,0.00,0.0,WeatherDisplay:10.37,2013-01-18 12:34:00,
2013-01-18 06:39:00,30.8,24.4,30.33,South,188,12.7,12.7,77,0.00,CLR,,0.00,0.0,WeatherDisplay:10.37,2013-01-18 12:39:00,
2013-01-18 06:44:00,30.8,24.4,30.33,South,180,15.0,15.0,77,0.00,CLR,,0.00,0.0,WeatherDisplay:10.37,2013-01-18 12:44:00,
2013-01-18 06:49:00,30.8,24.4,30.32,SSW,195,13.8,13.8,77,0.00,CLR,,0.00,0.0,WeatherDisplay:10.37,2013-01-18 12:49:00,
2013-01-18 06:54:00,30.7,24.3,30.32,South,186,14.0,14.0,77,0.00,CLR,,0.00,0.0,WeatherDisplay:10.37,2013-01-18 12:54:00,
2013-01-18 06:59:00,30.7,24.3,30.32,SSW,196,5.8,5.8,77,0.00,CLR,,0.00,0.0,WeatherDisplay:10.37,2013-01-18 12:59:00,
2013-01-18 07:04:00,30.6,23.9,30.32,South,188,10.4,10.4,76,0.00,OVC,,0.00,0.0,WeatherDisplay:10.37,2013-01-18 13:04:00,
2013-01-18 07:09:00,30.5,23.8,30.32,South,175,4.6,4.6,76,0.00,OVC,,0.00,0.0,WeatherDisplay:10.37,2013-01-18 13:09:00,
2013-01-18 07:14:00,30.3,23.6,30.32,SSW,196,11.5,11.5,76,0.00,OVC,,0.00,0.0,WeatherDisplay:10.37,2013-01-18 13:14:00,
2013-01-18 07:19:00,30.2,23.5,30.32,South,184,10.4,10.4,76,0.00,OVC,,0.00,5.0,WeatherDisplay:10.37,2013-01-18 13:19:00,
2013-01-18 07:24:00,30.2,23.5,30.32,South,191,11.5,11.5,76,0.00,OVC,,0.00,9.0,WeatherDisplay:10.37,2013-01-18 13:24:00,
2013-01-18 07:29:00,30.1,23.8,30.31,SSE,160,16.1,16.1,77,0.00,CLR,,0.00,12.0,WeatherDisplay:10.37,2013-01-18 13:29:00,
2013-01-18 07:34:00,30.1,23.8,30.31,South,184,11.5,11.5,77,0.00,BKN,,0.00,14.0,WeatherDisplay:10.37,2013-01-18 13:34:00,
2013-01-18 07:39:00,30.1,23.8,30.31,SSE,168,27.6,27.6,77,0.00,BKN,,0.00,21.0,WeatherDisplay:10.37,2013-01-18 13:39:00,
2013-01-18 07:44:00,30.2,23.5,30.31,SW,229,19.6,19.6,76,0.00,BKN,,0.00,33.0,WeatherDisplay:10.37,2013-01-18 13:44:00,
2013-01-18 07:49:00,30.2,23.5,30.31,SSW,205,13.8,13.8,76,0.01,RA,,0.01,62.0,WeatherDisplay:10.37,2013-01-18 13:49:00,
2013-01-18 07:54:00,30.3,23.6,30.30,South,182,11.5,12.6,76,0.01,RA,,0.01,44.0,WeatherDisplay:10.37,2013-01-18 13:54:00,
2013-01-18 07:59:00,30.5,23.8,30.30,SSE,163,20.7,20.7,76,0.01,BKN,,0.01,47.0,WeatherDisplay:10.37,2013-01-18 13:59:00,
2013-01-18 08:04:00,30.6,23.9,30.29,South,183,23.0,23.0,76,0.01,BKN,,0.01,56.0,WeatherDisplay:10.37,2013-01-18 14:04:00,
2013-01-18 08:09:00,30.8,24.1,30.29,SE,135,21.9,21.9,76,0.01,BKN,,0.01,63.0,WeatherDisplay:10.37,2013-01-18 14:09:00,
2013-01-18 08:14:00,31.1,24.4,30.29,SSW,206,17.3,17.3,76,0.01,BKN,,0.01,83.0,WeatherDisplay:10.37,2013-01-18 14:14:00,
2013-01-18 08:19:00,31.3,24.3,30.29,South,190,15.0,15.0,75,0.01,OVC,,0.01,67.0,WeatherDisplay:10.37,2013-01-18 14:19:00,
2013-01-18 08:24:00,31.5,24.5,30.29,SSW,196,19.6,19.6,75,0.01,BKN,,0.01,90.0,WeatherDisplay:10.37,2013-01-18 14:24:00,
2013-01-18 08:29:00,31.8,24.8,30.29,SSE,168,17.0,17.0,75,0.01,BKN,,0.01,95.0,WeatherDisplay:10.37,2013-01-18 14:29:00,
2013-01-18 08:34:00,32.1,25.1,30.29,SSW,196,20.7,20.7,75,0.01,BKN,,0.01,104.0,WeatherDisplay:10.37,2013-01-18 14:34:00,
2013-01-18 08:39:00,32.4,25.4,30.29,SSW,204,17.3,17.3,75,0.01,BKN,,0.01,135.0,WeatherDisplay:10.37,2013-01-18 14:39:00,
2013-01-18 08:44:00,32.7,25.6,30.28,SSW,196,15.0,15.0,75,0.01,BKN,,0.01,84.0,WeatherDisplay:10.37,2013-01-18 14:44:00,
2013-01-18 08:49:00,33.1,25.7,30.28,South,180,25.3,25.3,74,0.00,BKN,,0.01,127.0,WeatherDisplay:10.37,2013-01-18 14:49:00,
2013-01-18 08:55:00,33.4,26.0,30.28,SSW,201,18.4,18.4,74,0.00,BKN,,0.01,130.0,WeatherDisplay:10.37,2013-01-18 14:55:00,
2013-01-18 09:00:00,33.7,26.0,30.28,SSE,161,19.6,19.6,73,0.00,BKN,,0.01,76.0,WeatherDisplay:10.37,2013-01-18 15:00:00,
2013-01-18 09:05:00,34.1,26.3,30.27,SW,216,20.7,20.7,73,0.00,OVC,,0.01,84.0,WeatherDisplay:10.37,2013-01-18 15:05:00,
2013-01-18 09:10:00,34.4,26.3,30.28,South,181,27.6,27.6,72,0.00,BKN,,0.01,139.0,WeatherDisplay:10.37,2013-01-18 15:10:00,
2013-01-18 09:15:00,34.8,28.3,30.27,South,179,19.6,19.6,77,0.00,SCT,,0.01,183.0,WeatherDisplay:10.37,2013-01-18 15:15:00,
2013-01-18 09:20:00,35.1,27.0,30.27,South,186,19.6,19.6,72,0.00,SCT,,0.01,257.0,WeatherDisplay:10.37,2013-01-18 15:20:00,
2013-01-18 09:25:00,35.5,27.0,30.27,SSW,205,29.9,29.9,71,0.00,SCT,,0.01,250.0,WeatherDisplay:10.37,2013-01-18 15:25:00,
2013-01-18 09:30:00,35.7,27.2,30.26,South,169,17.3,17.3,71,0.00,FEW,,0.01,338.0,WeatherDisplay:10.37,2013-01-18 15:30:00,
2013-01-18 09:35:00,36.2,27.4,30.26,SSE,148,18.4,18.4,70,0.00,SCT,,0.01,313.0,WeatherDisplay:10.37,2013-01-18 15:35:00,
2013-01-18 09:40:00,36.4,27.5,30.26,South,188,33.4,33.4,70,0.00,FEW,,0.01,316.0,WeatherDisplay:10.37,2013-01-18 15:40:00,
2013-01-18 09:45:00,36.8,27.6,30.25,SSE,165,26.5,26.5,69,0.00,FEW,,0.01,385.0,WeatherDisplay:10.37,2013-01-18 15:45:00,
2013-01-18 09:50:00,37.1,27.9,30.25,SSE,165,19.0,19.0,69,0.00,CLR,,0.01,448.0,WeatherDisplay:10.37,2013-01-18 15:50:00,
2013-01-18 09:55:00,37.5,28.2,30.25,SSW,192,20.7,20.7,69,0.00,CLR,,0.01,547.0,WeatherDisplay:10.37,2013-01-18 15:55:00,
2013-01-18 10:00:00,37.8,28.2,30.25,SSW,200,23.0,23.0,68,0.00,CLR,,0.01,480.0,WeatherDisplay:10.37,2013-01-18 16:00:00,
2013-01-18 10:05:00,37.8,28.2,30.24,South,179,24.2,24.2,68,0.00,SCT,,0.01,338.0,WeatherDisplay:10.37,2013-01-18 16:05:00,
2013-01-18 10:10:00,37.9,28.6,30.24,SSW,202,24.2,24.2,69,0.00,FEW,,0.01,404.0,WeatherDisplay:10.37,2013-01-18 16:10:00,
2013-01-18 10:15:00,38.1,28.8,30.24,South,187,9.2,9.2,69,0.00,FEW,,0.01,392.0,WeatherDisplay:10.37,2013-01-18 16:15:00,
2013-01-18 10:20:00,38.4,28.8,30.23,SE,146,16.1,16.1,68,0.00,FEW,,0.01,420.0,WeatherDisplay:10.37,2013-01-18 16:20:00,
2013-01-18 10:25:00,38.4,28.8,30.23,South,172,26.5,26.5,68,0.00,BKN,,0.01,253.0,WeatherDisplay:10.37,2013-01-18 16:25:00,
2013-01-18 10:30:00,38.4,28.8,30.23,SSW,195,32.2,32.2,68,0.00,SCT,,0.01,287.0,WeatherDisplay:10.37,2013-01-18 16:30:00,
2013-01-18 10:35:00,38.4,29.1,30.23,SSW,194,20.7,20.7,69,0.00,BKN,,0.01,271.0,WeatherDisplay:10.37,2013-01-18 16:35:00,
2013-01-18 10:40:00,38.4,29.1,30.23,SSW,198,19.6,19.6,69,0.00,OVC,,0.01,155.0,WeatherDisplay:10.37,2013-01-18 16:40:00,
2013-01-18 10:45:00,38.3,29.0,30.22,South,172,28.8,28.8,69,0.00,OVC,,0.01,185.0,WeatherDisplay:10.37,2013-01-18 16:45:00,
2013-01-18 10:50:00,38.3,29.4,30.21,SSE,159,24.2,24.2,70,0.00,OVC,,0.01,178.0,WeatherDisplay:10.37,2013-01-18 16:50:00,
2013-01-18 10:55:00,38.6,29.7,30.21,South,180,13.8,13.8,70,0.00,FEW,,0.01,415.0,WeatherDisplay:10.37,2013-01-18 16:55:00,
2013-01-18 11:00:00,39.2,30.2,30.20,SSW,202,16.1,16.1,70,0.00,CLR,,0.01,401.0,WeatherDisplay:10.37,2013-01-18 17:00:00,
2013-01-18 11:05:00,39.6,30.3,30.20,SSE,163,26.5,26.5,69,0.00,SCT,,0.01,396.0,WeatherDisplay:10.37,2013-01-18 17:05:00,
2013-01-18 11:10:00,40.0,30.6,30.19,SSW,193,25.3,25.3,69,0.00,FEW,,0.01,490.0,WeatherDisplay:10.37,2013-01-18 17:10:00,
2013-01-18 11:15:00,40.3,30.6,30.18,South,175,21.9,21.9,68,0.00,FEW,,0.01,476.0,WeatherDisplay:10.37,2013-01-18 17:15:00,
2013-01-18 11:20:00,40.5,30.8,30.18,SSW,197,26.5,26.5,68,0.00,FEW,,0.01,513.0,WeatherDisplay:10.37,2013-01-18 17:20:00,
2013-01-18 11:25:00,40.7,31.0,30.17,SE,144,23.0,23.0,68,0.00,FEW,,0.01,513.0,WeatherDisplay:10.37,2013-01-18 17:25:00,
2013-01-18 11:30:00,41.0,31.2,30.16,South,186,27.0,27.0,68,0.00,FEW,,0.01,515.0,WeatherDisplay:10.37,2013-01-18 17:30:00,
2013-01-18 11:35:00,41.2,31.4,30.16,SW,232,26.5,26.5,68,0.00,FEW,,0.01,519.0,WeatherDisplay:10.37,2013-01-18 17:35:00,
2013-01-18 11:40:00,41.4,31.3,30.15,South,173,26.5,26.5,67,0.00,FEW,,0.01,520.0,WeatherDisplay:10.37,2013-01-18 17:40:00,
2013-01-18 11:45:00,41.6,31.4,30.14,SSE,164,25.3,25.3,67,0.00,FEW,,0.01,524.0,WeatherDisplay:10.37,2013-01-18 17:45:00,
2013-01-18 11:50:00,41.8,31.6,30.14,SSE,163,21.0,21.0,67,0.00,FEW,,0.01,519.0,WeatherDisplay:10.37,2013-01-18 17:50:00,
2013-01-18 11:55:00,42.0,31.8,30.13,South,186,24.2,24.2,67,0.00,FEW,,0.01,522.0,WeatherDisplay:10.37,2013-01-18 17:55:00,
2013-01-18 12:00:00,42.2,32.0,30.13,SW,214,24.2,24.2,67,0.00,FEW,,0.01,526.0,WeatherDisplay:10.37,2013-01-18 18:00:00,
2013-01-18 12:05:00,42.4,32.2,30.12,SSW,202,26.5,26.5,67,0.00,FEW,,0.01,526.0,WeatherDisplay:10.37,2013-01-18 18:05:00,
2013-01-18 12:10:00,42.6,32.4,30.11,SSW,205,21.0,21.0,67,0.00,FEW,,0.01,526.0,WeatherDisplay:10.37,2013-01-18 18:10:00,
2013-01-18 12:15:00,42.9,32.7,30.11,South,186,26.5,26.5,67,0.00,FEW,,0.01,522.0,WeatherDisplay:10.37,2013-01-18 18:15:00,
2013-01-18 12:20:00,43.3,32.7,30.10,SW,215,26.5,26.5,66,0.00,FEW,,0.01,522.0,WeatherDisplay:10.37,2013-01-18 18:20:00,
2013-01-18 12:25:00,43.5,32.9,30.10,South,185,33.4,33.4,66,0.00,FEW,,0.01,520.0,WeatherDisplay:10.37,2013-01-18 18:25:00,
2013-01-18 12:30:00,43.6,33.0,30.09,South,188,23.0,23.0,66,0.00,FEW,,0.01,520.0,WeatherDisplay:10.37,2013-01-18 18:30:00,
2013-01-18 12:35:00,43.8,33.2,30.08,South,190,24.2,24.2,66,0.00,FEW,,0.01,517.0,WeatherDisplay:10.37,2013-01-18 18:35:00,
2013-01-18 12:40:00,44.1,33.5,30.08,SSW,192,20.7,20.7,66,0.00,FEW,,0.01,513.0,WeatherDisplay:10.37,2013-01-18 18:40:00,
2013-01-18 12:45:00,44.2,33.2,30.07,SW,225,31.1,31.1,65,0.00,FEW,,0.01,506.0,WeatherDisplay:10.37,2013-01-18 18:45:00,
2013-01-18 12:50:00,44.3,33.3,30.06,SSW,206,25.3,25.3,65,0.00,FEW,,0.01,510.0,WeatherDisplay:10.37,2013-01-18 18:50:00,
2013-01-18 12:55:00,44.3,33.7,30.06,SSW,207,26.5,26.5,66,0.00,FEW,,0.01,499.0,WeatherDisplay:10.37,2013-01-18 18:55:00,
2013-01-18 13:00:00,44.7,34.0,30.06,SSW,194,31.1,31.1,66,0.00,FEW,,0.01,501.0,WeatherDisplay:10.37,2013-01-18 19:00:00,
2013-01-18 13:05:00,44.8,33.7,30.05,SSW,211,33.4,33.4,65,0.00,FEW,,0.01,496.0,WeatherDisplay:10.37,2013-01-18 19:05:00,
2013-01-18 13:10:00,45.1,34.0,30.05,SSW,213,24.2,24.2,65,0.00,FEW,,0.01,489.0,WeatherDisplay:10.37,2013-01-18 19:10:00,
2013-01-18 13:15:00,45.4,34.3,30.05,South,187,26.5,26.5,65,0.00,FEW,,0.01,485.0,WeatherDisplay:10.37,2013-01-18 19:15:00,
2013-01-18 13:20:00,45.5,34.4,30.04,SSW,200,25.3,25.3,65,0.00,FEW,,0.01,478.0,WeatherDisplay:10.37,2013-01-18 19:20:00,
2013-01-18 13:25:00,45.7,34.6,30.04,SSW,198,20.7,20.7,65,0.00,FEW,,0.01,471.0,WeatherDisplay:10.37,2013-01-18 19:25:00,
2013-01-18 13:30:00,45.8,34.3,30.03,SSW,207,27.6,27.6,64,0.00,FEW,,0.01,462.0,WeatherDisplay:10.37,2013-01-18 19:30:00,
2013-01-18 13:35:00,46.0,34.9,30.03,SW,217,26.5,26.5,65,0.00,FEW,,0.01,459.0,WeatherDisplay:10.37,2013-01-18 19:35:00,
2013-01-18 13:40:00,46.1,34.6,30.02,SSW,195,20.7,20.7,64,0.00,FEW,,0.01,450.0,WeatherDisplay:10.37,2013-01-18 19:40:00,
2013-01-18 13:46:00,46.0,34.5,30.02,SSW,192,33.4,33.4,64,0.00,FEW,,0.01,443.0,WeatherDisplay:10.37,2013-01-18 19:46:00,
2013-01-18 13:51:00,46.2,35.1,30.01,South,188,26.0,26.0,65,0.00,FEW,,0.01,424.0,WeatherDisplay:10.37,2013-01-18 19:51:00,
2013-01-18 13:56:00,46.5,35.0,30.01,SSW,199,23.0,23.0,64,0.00,FEW,,0.01,420.0,WeatherDisplay:10.37,2013-01-18 19:56:00,
2013-01-18 14:01:00,46.4,34.5,30.01,SSW,194,32.2,32.2,63,0.00,FEW,,0.01,417.0,WeatherDisplay:10.37,2013-01-18 20:01:00,
2013-01-18 14:06:00,46.6,35.1,30.01,SW,215,27.6,27.6,64,0.00,FEW,,0.01,408.0,WeatherDisplay:10.37,2013-01-18 20:06:00,
2013-01-18 14:11:00,46.8,35.3,30.00,SSW,195,15.0,15.0,64,0.00,FEW,,0.01,399.0,WeatherDisplay:10.37,2013-01-18 20:11:00,
2013-01-18 14:16:00,47.1,35.5,30.00,South,171,21.9,21.9,64,0.00,FEW,,0.01,388.0,WeatherDisplay:10.37,2013-01-18 20:16:00,
2013-01-18 14:21:00,47.2,35.2,29.99,SE,144,28.8,28.8,63,0.00,FEW,,0.01,378.0,WeatherDisplay:10.37,2013-01-18 20:21:00,
2013-01-18 14:26:00,47.3,35.7,29.99,SSW,211,25.3,25.3,64,0.00,FEW,,0.01,369.0,WeatherDisplay:10.37,2013-01-18 20:26:00,
2013-01-18 14:31:00,47.5,35.9,29.99,SW,218,20.7,20.7,64,0.00,FEW,,0.01,359.0,WeatherDisplay:10.37,2013-01-18 20:31:00,
2013-01-18 14:36:00,47.6,36.0,29.98,SSW,193,25.3,25.3,64,0.00,FEW,,0.01,345.0,WeatherDisplay:10.37,2013-01-18 20:36:00,
2013-01-18 14:41:00,47.8,36.2,29.98,SSW,200,16.1,16.1,64,0.00,FEW,,0.01,336.0,WeatherDisplay:10.37,2013-01-18 20:41:00,
2013-01-18 14:46:00,47.9,35.9,29.97,SSW,208,21.9,21.9,63,0.00,FEW,,0.01,325.0,WeatherDisplay:10.37,2013-01-18 20:46:00,
2013-01-18 14:51:00,47.9,35.9,29.97,SSW,213,26.5,26.5,63,0.00,FEW,,0.01,304.0,WeatherDisplay:10.37,2013-01-18 20:51:00,
2013-01-18 14:56:00,48.0,36.4,29.97,South,191,17.3,17.3,64,0.00,FEW,,0.01,306.0,WeatherDisplay:10.37,2013-01-18 20:56:00,
2013-01-18 15:01:00,48.1,36.1,29.96,SSW,194,20.7,20.7,63,0.00,FEW,,0.01,292.0,WeatherDisplay:10.37,2013-01-18 21:01:00,
2013-01-18 15:06:00,48.1,36.1,29.96,SSW,201,17.3,17.3,63,0.00,FEW,,0.01,279.0,WeatherDisplay:10.37,2013-01-18 21:06:00,
2013-01-18 15:11:00,48.1,36.5,29.96,SSE,164,23.0,23.0,64,0.00,FEW,,0.01,269.0,WeatherDisplay:10.37,2013-01-18 21:11:00,
2013-01-18 15:16:00,48.1,36.5,29.95,South,184,19.6,19.6,64,0.00,FEW,,0.01,255.0,WeatherDisplay:10.37,2013-01-18 21:16:00,
2013-01-18 15:21:00,48.2,36.6,29.95,SSW,211,17.0,17.0,64,0.00,FEW,,0.01,244.0,WeatherDisplay:10.37,2013-01-18 21:21:00,
2013-01-18 15:26:00,48.3,36.7,29.95,SE,143,19.6,19.6,64,0.00,FEW,,0.01,230.0,WeatherDisplay:10.37,2013-01-18 21:26:00,
2013-01-18 15:31:00,48.3,36.7,29.96,South,176,15.0,15.0,64,0.00,FEW,,0.01,218.0,WeatherDisplay:10.37,2013-01-18 21:31:00,
2013-01-18 15:36:00,48.3,36.7,29.96,South,189,12.7,12.7,64,0.00,SCT,,0.01,204.0,WeatherDisplay:10.37,2013-01-18 21:36:00,
2013-01-18 15:41:00,48.3,36.7,29.96,SSW,193,19.6,19.6,64,0.00,SCT,,0.01,190.0,WeatherDisplay:10.37,2013-01-18 21:41:00,
2013-01-18 15:46:00,48.3,36.7,29.96,SSW,196,15.0,15.0,64,0.00,SCT,,0.01,178.0,WeatherDisplay:10.37,2013-01-18 21:46:00,
2013-01-18 15:51:00,48.3,36.7,29.96,South,188,12.0,12.0,64,0.00,SCT,,0.01,165.0,WeatherDisplay:10.37,2013-01-18 21:51:00,
2013-01-18 15:56:00,48.3,36.7,29.96,SSW,199,15.0,15.0,64,0.00,SCT,,0.01,137.0,WeatherDisplay:10.37,2013-01-18 21:56:00,
2013-01-18 16:01:00,48.3,36.3,29.96,SSW,196,17.3,17.3,63,0.00,BKN,,0.01,104.0,WeatherDisplay:10.37,2013-01-18 22:01:00,
2013-01-18 16:06:00,48.2,36.2,29.96,SSW,198,18.4,18.4,63,0.00,SCT,,0.01,98.0,WeatherDisplay:10.37,2013-01-18 22:06:00,
2013-01-18 16:11:00,48.0,36.4,29.96,SW,218,25.3,25.3,64,0.00,OVC,,0.01,60.0,WeatherDisplay:10.37,2013-01-18 22:11:00,
2013-01-18 16:16:00,48.0,36.0,29.96,SSW,192,16.1,16.1,63,0.00,OVC,,0.01,49.0,WeatherDisplay:10.37,2013-01-18 22:16:00,
2013-01-18 16:21:00,47.9,36.3,29.96,SSW,211,16.1,16.1,64,0.00,OVC,,0.01,28.0,WeatherDisplay:10.37,2013-01-18 22:21:00,
2013-01-18 16:26:00,47.7,36.1,29.96,SSW,207,13.8,13.8,64,0.00,OVC,,0.01,16.0,WeatherDisplay:10.37,2013-01-18 22:26:00,
2013-01-18 16:31:00,47.4,35.8,29.96,SSW,207,16.1,16.1,64,0.00,OVC,,0.01,18.0,WeatherDisplay:10.37,2013-01-18 22:31:00,
2013-01-18 16:36:00,47.2,35.6,29.96,South,190,18.4,18.4,64,0.00,OVC,,0.01,18.0,WeatherDisplay:10.37,2013-01-18 22:36:00,
2013-01-18 16:41:00,47.0,35.4,29.96,SSW,207,17.3,17.3,64,0.00,OVC,,0.01,18.0,WeatherDisplay:10.37,2013-01-18 22:41:00,
2013-01-18 16:46:00,46.7,35.6,29.96,SW,217,16.1,16.1,65,0.00,OVC,,0.01,12.0,WeatherDisplay:10.37,2013-01-18 22:46:00,
2013-01-18 16:51:00,46.5,35.4,29.95,SSW,213,18.4,18.4,65,0.00,BKN,,0.01,11.0,WeatherDisplay:10.37,2013-01-18 22:51:00,
2013-01-18 16:56:00,46.5,35.4,29.95,South,191,18.4,18.4,65,0.00,CLR,,0.01,7.0,WeatherDisplay:10.37,2013-01-18 22:56:00,
2013-01-18 17:01:00,46.4,35.3,29.95,South,175,18.4,18.4,65,0.00,OVC,,0.01,9.0,WeatherDisplay:10.37,2013-01-18 23:01:00,
2013-01-18 17:06:00,46.3,35.2,29.95,SSW,194,16.1,16.1,65,0.00,OVC,,0.01,9.0,WeatherDisplay:10.37,2013-01-18 23:06:00,
2013-01-18 17:11:00,46.2,35.1,29.95,SSW,199,13.8,13.8,65,0.00,OVC,,0.01,5.0,WeatherDisplay:10.37,2013-01-18 23:11:00,
2013-01-18 17:16:00,46.2,35.1,29.95,SW,216,19.6,19.6,65,0.00,OVC,,0.01,0.0,WeatherDisplay:10.37,2013-01-18 23:16:00,
2013-01-18 17:21:00,46.0,35.3,29.95,South,188,19.6,19.6,66,0.00,OVC,,0.01,0.0,WeatherDisplay:10.37,2013-01-18 23:21:00,
2013-01-18 17:26:00,46.0,35.3,29.95,SSW,198,18.4,18.4,66,0.00,OVC,,0.01,0.0,WeatherDisplay:10.37,2013-01-18 23:26:00,
2013-01-18 17:31:00,45.9,35.2,29.95,SSE,163,20.7,20.7,66,0.00,CLR,,0.01,0.0,WeatherDisplay:10.37,2013-01-18 23:31:00,
2013-01-18 17:36:00,45.9,35.2,29.95,South,188,15.0,15.0,66,0.00,CLR,,0.01,0.0,WeatherDisplay:10.37,2013-01-18 23:36:00,
2013-01-18 17:41:00,45.7,35.0,29.96,SSW,212,13.8,13.8,66,0.00,CLR,,0.01,0.0,WeatherDisplay:10.37,2013-01-18 23:41:00,
2013-01-18 17:46:00,45.6,34.9,29.96,SSW,195,22.0,22.0,66,0.00,CLR,,0.01,0.0,WeatherDisplay:10.37,2013-01-18 23:46:00,
2013-01-18 17:51:00,45.5,34.8,29.96,SW,224,12.7,12.7,66,0.00,CLR,,0.01,0.0,WeatherDisplay:10.37,2013-01-18 23:51:00,
2013-01-18 17:56:00,45.4,34.7,29.96,SSW,207,12.7,12.7,66,0.00,CLR,,0.01,0.0,WeatherDisplay:10.37,2013-01-18 23:56:00,
2013-01-18 18:01:00,45.4,34.7,29.96,SSW,200,11.5,12.0,66,0.00,CLR,,0.01,0.0,WeatherDisplay:10.37,2013-01-19 00:01:00,
2013-01-18 18:06:00,45.4,34.7,29.96,South,171,15.0,15.0,66,0.00,CLR,,0.01,0.0,WeatherDisplay:10.37,2013-01-19 00:06:00,
2013-01-18 18:11:00,45.3,34.6,29.96,SSW,200,12.7,12.7,66,0.00,CLR,,0.01,0.0,WeatherDisplay:10.37,2013-01-19 00:11:00,
2013-01-18 18:16:00,45.3,34.6,29.96,South,190,17.3,17.3,66,0.00,CLR,,0.01,0.0,WeatherDisplay:10.37,2013-01-19 00:16:00,
2013-01-18 18:21:00,45.4,34.7,29.96,South,180,16.1,16.1,66,0.00,CLR,,0.01,0.0,WeatherDisplay:10.37,2013-01-19 00:21:00,
2013-01-18 18:26:00,45.5,34.8,29.96,South,189,18.4,18.4,66,0.00,CLR,,0.01,0.0,WeatherDisplay:10.37,2013-01-19 00:26:00,
2013-01-18 18:31:00,45.5,34.4,29.96,SSW,205,17.3,17.3,65,0.00,CLR,,0.01,0.0,WeatherDisplay:10.37,2013-01-19 00:31:00,
2013-01-18 18:36:00,45.5,34.4,29.96,SSW,209,16.0,16.0,65,0.00,CLR,,0.01,0.0,WeatherDisplay:10.37,2013-01-19 00:36:00,
2013-01-18 18:41:00,45.5,34.4,29.96,South,188,13.8,13.8,65,0.00,CLR,,0.01,0.0,WeatherDisplay:10.37,2013-01-19 00:41:00,
2013-01-18 18:46:00,45.4,34.3,29.96,SSE,168,13.0,13.0,65,0.00,CLR,,0.01,0.0,WeatherDisplay:10.37,2013-01-19 00:46:00,
2013-01-18 18:52:00,45.3,34.2,29.96,South,187,17.3,17.3,65,0.00,CLR,,0.01,0.0,WeatherDisplay:10.37,2013-01-19 00:52:00,
2013-01-18 18:57:00,45.2,34.1,29.96,South,188,19.6,19.6,65,0.00,CLR,,0.01,0.0,WeatherDisplay:10.37,2013-01-19 00:57:00,
2013-01-18 19:02:00,45.0,34.3,29.96,SSW,196,12.7,12.7,66,0.00,CLR,,0.01,0.0,WeatherDisplay:10.37,2013-01-19 01:02:00,
2013-01-18 19:07:00,45.0,34.3,29.96,SSW,209,19.6,19.6,66,0.00,CLR,,0.01,0.0,WeatherDisplay:10.37,2013-01-19 01:07:00,
2013-01-18 19:12:00,45.0,34.3,29.96,South,169,19.6,19.6,66,0.00,CLR,,0.01,0.0,WeatherDisplay:10.37,2013-01-19 01:12:00,
2013-01-18 19:17:00,45.0,34.3,29.96,SSW,194,16.1,16.1,66,0.00,CLR,,0.01,0.0,WeatherDisplay:10.37,2013-01-19 01:17:00,
2013-01-18 19:22:00,44.9,34.2,29.96,SSW,207,11.5,11.5,66,0.00,CLR,,0.01,0.0,WeatherDisplay:10.37,2013-01-19 01:22:00,
2013-01-18 19:27:00,44.7,34.0,29.96,SSW,196,19.6,19.6,66,0.00,CLR,,0.01,0.0,WeatherDisplay:10.37,2013-01-19 01:27:00,
2013-01-18 19:32:00,44.6,33.9,29.95,SSW,199,19.6,19.6,66,0.00,CLR,,0.01,0.0,WeatherDisplay:10.37,2013-01-19 01:32:00,
2013-01-18 19:37:00,44.6,33.9,29.96,South,187,16.1,16.1,66,0.00,CLR,,0.01,0.0,WeatherDisplay:10.37,2013-01-19 01:37:00,
2013-01-18 19:42:00,44.6,33.9,29.95,SSW,195,14.0,14.0,66,0.00,CLR,,0.01,0.0,WeatherDisplay:10.37,2013-01-19 01:42:00,
2013-01-18 19:47:00,44.4,33.7,29.95,South,188,13.8,13.8,66,0.00,CLR,,0.01,0.0,WeatherDisplay:10.37,2013-01-19 01:47:00,
2013-01-18 19:52:00,44.3,34.0,29.95,SSW,196,13.8,13.8,67,0.00,CLR,,0.01,0.0,WeatherDisplay:10.37,2013-01-19 01:52:00,
2013-01-18 19:57:00,44.2,33.9,29.95,SSW,202,16.1,16.1,67,0.00,CLR,,0.01,0.0,WeatherDisplay:10.37,2013-01-19 01:57:00,
2013-01-18 20:02:00,44.2,33.9,29.95,SSW,213,15.0,15.0,67,0.00,CLR,,0.01,0.0,WeatherDisplay:10.37,2013-01-19 02:02:00,
2013-01-18 20:07:00,44.3,34.0,29.95,South,180,16.1,16.1,67,0.00,CLR,,0.01,0.0,WeatherDisplay:10.37,2013-01-19 02:07:00,
2013-01-18 20:12:00,44.2,33.9,29.95,SSW,205,19.6,19.6,67,0.00,CLR,,0.01,0.0,WeatherDisplay:10.37,2013-01-19 02:12:00,
2013-01-18 20:17:00,44.2,33.6,29.95,South,177,18.4,18.4,66,0.00,CLR,,0.01,0.0,WeatherDisplay:10.37,2013-01-19 02:17:00,
2013-01-18 20:22:00,44.1,33.8,29.95,South,191,13.8,13.8,67,0.00,CLR,,0.01,0.0,WeatherDisplay:10.37,2013-01-19 02:22:00,
2013-01-18 20:28:00,44.0,33.7,29.95,South,187,16.1,16.1,67,0.00,CLR,,0.01,0.0,WeatherDisplay:10.37,2013-01-19 02:28:00,
2013-01-18 20:33:00,43.8,33.6,29.95,SSW,201,16.1,16.1,67,0.00,CLR,,0.01,0.0,WeatherDisplay:10.37,2013-01-19 02:33:00,
2013-01-18 20:38:00,43.8,33.6,29.95,SW,214,19.6,19.6,67,0.00,CLR,,0.01,0.0,WeatherDisplay:10.37,2013-01-19 02:38:00,
2013-01-18 20:43:00,43.7,33.8,29.95,South,190,10.4,10.4,68,0.00,CLR,,0.01,0.0,WeatherDisplay:10.37,2013-01-19 02:43:00,
2013-01-18 20:48:00,43.6,33.7,29.94,South,187,16.1,16.1,68,0.00,CLR,,0.01,0.0,WeatherDisplay:10.37,2013-01-19 02:48:00,
2013-01-18 20:53:00,43.5,33.6,29.94,SSW,194,11.5,11.5,68,0.00,CLR,,0.01,0.0,WeatherDisplay:10.37,2013-01-19 02:53:00,
2013-01-18 20:58:00,43.4,33.5,29.94,South,190,11.5,11.5,68,0.00,CLR,,0.01,0.0,WeatherDisplay:10.37,2013-01-19 02:58:00,
2013-01-18 21:03:00,43.3,33.4,29.94,SSW,210,13.8,13.8,68,0.00,CLR,,0.01,0.0,WeatherDisplay:10.37,2013-01-19 03:03:00,
2013-01-18 21:08:00,43.1,33.3,29.94,SSW,207,5.8,5.8,68,0.00,CLR,,0.01,0.0,WeatherDisplay:10.37,2013-01-19 03:08:00,
2013-01-18 21:13:00,43.1,33.3,29.94,SW,221,11.5,11.5,68,0.00,CLR,,0.01,0.0,WeatherDisplay:10.37,2013-01-19 03:13:00,
2013-01-18 21:18:00,43.1,33.3,29.94,SSW,209,10.4,10.4,68,0.00,CLR,,0.01,0.0,WeatherDisplay:10.37,2013-01-19 03:18:00,
2013-01-18 21:23:00,43.2,33.3,29.94,SSW,202,13.8,13.8,68,0.00,CLR,,0.01,0.0,WeatherDisplay:10.37,2013-01-19 03:23:00,
2013-01-18 21:28:00,43.3,33.4,29.94,SSW,198,17.3,17.3,68,0.00,CLR,,0.01,0.0,WeatherDisplay:10.37,2013-01-19 03:28:00,
2013-01-18 21:33:00,43.3,33.4,29.94,SW,222,11.5,11.5,68,0.00,CLR,,0.01,0.0,WeatherDisplay:10.37,2013-01-19 03:33:00,
2013-01-18 21:38:00,43.3,33.4,29.94,WSW,238,10.4,10.4,68,0.00,CLR,,0.01,0.0,WeatherDisplay:10.37,2013-01-19 03:38:00,
2013-01-18 21:43:00,43.2,33.3,29.94,SW,221,15.0,15.0,68,0.00,CLR,,0.01,0.0,WeatherDisplay:10.37,2013-01-19 03:43:00,
2013-01-18 21:48:00,43.2,33.7,29.94,SW,221,10.4,10.4,69,0.00,CLR,,0.01,0.0,WeatherDisplay:10.37,2013-01-19 03:48:00,
2013-01-18 21:53:00,43.1,33.6,29.94,SW,214,11.5,11.5,69,0.00,CLR,,0.01,0.0,WeatherDisplay:10.37,2013-01-19 03:53:00,
2013-01-18 21:58:00,43.0,33.5,29.94,SSW,196,6.9,6.9,69,0.00,CLR,,0.01,0.0,WeatherDisplay:10.37,2013-01-19 03:58:00,
2013-01-18 22:03:00,42.8,33.3,29.93,SW,215,11.5,11.5,69,0.00,CLR,,0.01,0.0,WeatherDisplay:10.37,2013-01-19 04:03:00,
2013-01-18 22:08:00,42.7,33.6,29.93,SSW,213,10.4,10.4,70,0.00,CLR,,0.01,0.0,WeatherDisplay:10.37,2013-01-19 04:08:00,
2013-01-18 22:13:00,42.7,33.6,29.93,SSW,203,9.0,9.0,70,0.00,CLR,,0.01,0.0,WeatherDisplay:10.37,2013-01-19 04:13:00,
2013-01-18 22:18:00,42.6,33.5,29.93,SSW,194,11.5,11.5,70,0.00,CLR,,0.01,0.0,WeatherDisplay:10.37,2013-01-19 04:18:00,
2013-01-18 22:23:00,42.5,33.4,29.93,SW,224,6.9,6.9,70,0.00,CLR,,0.01,0.0,WeatherDisplay:10.37,2013-01-19 04:23:00,
2013-01-18 22:28:00,42.4,33.7,29.93,SSW,194,10.4,10.4,71,0.00,CLR,,0.01,0.0,WeatherDisplay:10.37,2013-01-19 04:28:00,
2013-01-18 22:33:00,42.3,33.6,29.93,SSW,200,10.4,10.4,71,0.00,CLR,,0.01,0.0,WeatherDisplay:10.37,2013-01-19 04:33:00,
2013-01-18 22:38:00,42.3,33.6,29.93,SSW,213,13.8,13.8,71,0.00,CLR,,0.01,0.0,WeatherDisplay:10.37,2013-01-19 04:38:00,
2013-01-18 22:43:00,42.3,33.6,29.93,SSW,209,6.9,6.9,71,0.00,CLR,,0.01,0.0,WeatherDisplay:10.37,2013-01-19 04:43:00,
2013-01-18 22:48:00,42.2,33.8,29.93,SSW,209,10.4,10.4,72,0.00,CLR,,0.01,0.0,WeatherDisplay:10.37,2013-01-19 04:48:00,
2013-01-18 22:53:00,42.1,33.7,29.93,SSW,205,6.9,6.9,72,0.00,CLR,,0.01,0.0,WeatherDisplay:10.37,2013-01-19 04:53:00,
2013-01-18 22:58:00,42.0,33.6,29.93,SSW,211,6.9,6.9,72,0.00,CLR,,0.01,0.0,WeatherDisplay:10.37,2013-01-19 04:58:00,
2013-01-18 23:00:00,42.0,33.6,29.93,SSW,213,9.2,9.2,72,0.00,CLR,,0.01,0.0,WeatherDisplay:10.37,2013-01-19 05:00:00,
2013-01-18 23:01:00,42.0,33.6,29.92,SSW,210,10.4,10.4,72,0.00,CLR,,0.01,0.0,WeatherDisplay:10.37,2013-01-19 05:01:00,
2013-01-18 23:02:00,42.1,33.7,29.92,SW,218,8.1,8.1,72,0.00,CLR,,0.01,0.0,WeatherDisplay:10.37,2013-01-19 05:02:00,
2013-01-18 23:07:00,42.2,33.8,29.92,SW,223,16.1,16.1,72,0.00,CLR,,0.01,0.0,WeatherDisplay:10.37,2013-01-19 05:07:00,
2013-01-18 23:12:00,42.5,34.1,29.92,West,265,13.8,13.8,72,0.00,CLR,,0.01,0.0,WeatherDisplay:10.37,2013-01-19 05:12:00,
2013-01-18 23:17:00,42.8,34.0,29.92,SSW,208,11.5,11.5,71,0.00,CLR,,0.01,0.0,WeatherDisplay:10.37,2013-01-19 05:17:00,
2013-01-18 23:22:00,43.1,34.3,29.93,SW,232,15.0,15.0,71,0.00,CLR,,0.01,0.0,WeatherDisplay:10.37,2013-01-19 05:22:00,
2013-01-18 23:27:00,43.1,34.3,29.92,SSW,205,9.2,9.2,71,0.00,CLR,,0.01,0.0,WeatherDisplay:10.37,2013-01-19 05:27:00,
2013-01-18 23:32:00,43.1,34.3,29.92,SSW,210,11.5,11.5,71,0.00,CLR,,0.01,0.0,WeatherDisplay:10.37,2013-01-19 05:32:00,
2013-01-18 23:37:00,43.1,34.3,29.93,SW,236,9.2,9.2,71,0.00,CLR,,0.01,0.0,WeatherDisplay:10.37,2013-01-19 05:37:00,
2013-01-18 23:42:00,43.1,34.3,29.93,SW,225,12.7,12.7,71,0.00,CLR,,0.01,0.0,WeatherDisplay:10.37,2013-01-19 05:42:00,
2013-01-18 23:47:00,43.2,34.4,29.93,SSW,207,13.8,13.8,71,0.00,CLR,,0.01,0.0,WeatherDisplay:10.37,2013-01-19 05:47:00,
2013-01-18 23:52:00,43.2,34.4,29.93,WSW,238,10.4,10.4,71,0.00,CLR,,0.01,0.0,WeatherDisplay:10.37,2013-01-19 05:52:00,
2013-01-18 23:57:00,43.2,34.4,29.93,SW,217,10.4,10.4,71,0.00,CLR,,0.01,0.0,WeatherDisplay:10.37,2013-01-19 05:57:00,